Location: Silverdale
(47.6506°N, 122.6941°W)
Time: 04:58:47
(UTC+00:00)

Altair - Pass Details

Date: 09 October 2022
Orbit: 1501 x 1682 km, 47.2° (Epoch: 04 December)

Event Time Altitude Azimuth Distance (km) Brightness Sun altitude
Rises 16:02:41 0° 284° (WNW) 4,835 9.5 15.3°
Reaches altitude 10° 16:05:46 10° 283° (WNW) 3,870 9.1 15.7°
Maximum altitude 16:15:40 73° 202° (SSW) 1,735 8.2 17.2°
Drops below altitude 10° 16:25:45 10° 120° (ESE) 3,941 12.2 18.6°
Sets 16:28:56 0° 119° (ESE) 4,928 11.8 19.1°
